[[{"header":{"parameterUnit":"m.s-1","parameterCategory":1,"la1":30.2991,"la2":30.254,"lo1":-89.0895,"lo2":-89.0444,"dy":0.0017,"dx":0.0017,"nx":28,"ny":28,"refTime":"2025-12-24T03:00:00:Z","depth":0,"parameterNumber":2,"parameterNumberName":"U-component_of_WINDS"},"data":[0,0,0,0,0,0,0,0,0,0,0,0,0,0,0,0,0,0,0,0,0,0,0,0,0,0,0,0,0,0,0,0,0,0,0,0,0,0,0,0,0,0,0,0,0,0,0,0,0,0,0,0,0,0,0,0,0,0,0.8757,0.8757,0,0.8807,0.8808,0.8808,0.8812,0.8811,0.8811,0.881,0.8862,0.8864,0.8866,0,0,0,0,0,0,0,0,0,0,0,0,0,0.8665,0.8667,0.8757,0.8758,0.8758,0.8807,0.8808,0.8809,0.8812,0.8811,0.881,0.881,0.8861,0.8864,0.8866,0,0,0,0,0,0,0,0,0,0,0,0,0,0.8709,0.8667,0.8757,0.8766,0.8767,0.8807,0.8808,0.8809,0.8812,0.8811,0.881,0.8809,0.8861,0.8863,0.8866,0.8901,0,0,0.8875,0.8876,0,0,0,0,0,0,0,0,0.8707,0.8713,0.8764,0.8765,0.8767,0.8802,0.8795,0.884,0.8812,0.8795,0.881,0.8809,0.8843,0.8847,0.8858,0.8903,0.8905,0.8875,0.8877,0.8878,0.8879,0,0,0,0,0,0,0,0.8704,0.871,0.8777,0.8764,0.8766,0.8768,0.8773,0.8803,0.8823,0.8796,0.8797,0.8803,0.8843,0.8856,0.886,0.8906,0.8875,0.8878,0.8879,0.888,0.8984,0.8985,0,0,0,0,0,0,0.8699,0.8708,0.8775,0.8778,0.8734,0.877,0.8776,0.8792,0.8823,0.8827,0.8803,0.8803,0.8851,0.8856,0.8861,0.8905,0.8878,0.8881,0.8882,0.8983,0.8985,0.8986,0,0,0,0,0,0,0.8697,0.8705,0.8773,0.8743,0.8752,0.8773,0.879,0.8793,0.8805,0.8828,0.8832,0.8812,0.8851,0.8857,0.8891,0.8907,0.8882,0.8885,0.8982,0.8984,0.8985,0.8993,0,0,0,0,0,0,0.8694,0.8704,0.8717,0.8744,0.8754,0.8802,0.8791,0.8795,0.881,0.881,0.8837,0.8841,0.8851,0.8887,0.8894,0.8911,0.8887,0.8981,0.8983,0.8985,0.8991,0.8994,0.8997,0,0,0,0,0,0.8691,0.8717,0.8717,0.8726,0.877,0.8803,0.8809,0.8819,0.8811,0.8825,0.884,0.884,0.8904,0.8891,0.8899,0.8916,0.898,0.8982,0.8984,0.899,0.8994,0.8997,0,0,0,0,0,0,0.8691,0.872,0.8721,0.8756,0.8777,0.8803,0.882,0.8823,0.8846,0.8844,0.8857,0.8863,0.8897,0.891,0.8894,0.8953,0.8941,0.8945,0.8943,0.8947,0.8949,0.8946,0.8889,0,0,0,0,0,0.8695,0.8719,0.8743,0.8772,0.8782,0.88,0.8814,0.8821,0.8843,0.8851,0.8868,0.889,0.8915,0.8932,0.8956,0.8993,0.9,0.9009,0.9012,0.9015,0.9018,0.9041,0.9045,0.8993,0.8993,0.8993,0,0,0.8703,0.8723,0.8737,0.8772,0.8789,0.8814,0.8807,0.8833,0.8852,0.8855,0.8889,0.8902,0.8927,0.8964,0.898,0.8975,0.9034,0.9018,0.9019,0.9022,0.9043,0.9048,0.9053,0.8995,0.8995,0.8994,0,0,0.8732,0.8748,0.8775,0.8792,0.8818,0.883,0.8836,0.8862,0.8872,0.8906,0.8909,0.8932,0.8975,0.8993,0.9008,0.9046,0.9047,0.9053,0.9069,0.9091,0.9095,0.9098,0.9113,0.9118,0.9057,0.9057,0.9057,0,0.874,0.8777,0.8788,0.8815,0.8831,0.8836,0.8864,0.888,0.8912,0.8924,0.8918,0.8973,0.899,0.9031,0.9041,0.9052,0.9061,0.905,0.9093,0.9097,0.9101,0.9115,0.912,0.9057,0.9057,0.9057,0.9057,0,0.8786,0.8812,0.883,0.8862,0.888,0.8907,0.8923,0.8941,0.8946,0.8959,0.8994,0.9015,0.9045,0.9055,0.906,0.9098,0.9094,0.909,0.908,0.9106,0.912,0.9125,0.9058,0.9058,0.9058,0.9058,0,0,0.8814,0.8853,0.886,0.8875,0.8905,0.8926,0.8954,0.8983,0.8998,0.9021,0.9045,0.9082,0.908,0.9097,0.9104,0.9123,0.9154,0.9118,0.9119,0.9125,0.9198,0.9201,0.9207,0.9155,0.9156,0.9157,0.9196,0,0.8847,0.8897,0.8908,0.8951,0.8976,0.8982,0.9007,0.9028,0.9041,0.9065,0.908,0.9106,0.91,0.9111,0.913,0.9146,0.9169,0.9143,0.9179,0.918,0.9173,0.9214,0.9216,0.9253,0.9202,0.9202,0.9203,0,0.8891,0.8916,0.8961,0.8989,0.9,0.9022,0.9051,0.9073,0.9098,0.9107,0.9126,0.9133,0.9163,0.9151,0.9194,0.9176,0.9191,0.9202,0.9204,0.9207,0.9193,0.922,0.9264,0.927,0.9211,0.9211,0.921,0,0.8909,0.8953,0.8987,0.9,0.9033,0.9048,0.9063,0.9087,0.9105,0.913,0.9142,0.917,0.9186,0.9208,0.9222,0.9212,0.9264,0.9253,0.9273,0.9273,0.9284,0.9283,0.9332,0.9293,0.9293,0.9293,0.9292,0,0.8945,0.8972,0.8996,0.9016,0.9048,0.9062,0.9093,0.9108,0.913,0.9154,0.9161,0.9184,0.9201,0.9226,0.9238,0.9272,0.9279,0.9287,0.929,0.9287,0.9286,0.9297,0.9295,0.9294,0.9294,0.9293,0.9293,0,0.897,0.8986,0.9023,0.9052,0.906,0.9083,0.9108,0.9129,0.9143,0.9173,0.9181,0.9203,0.9234,0.925,0.9288,0.9296,0.9335,0.9336,0.9326,0.9328,0.9347,0.9345,0.9406,0.9415,0.9369,0.9369,0.937,0,0.8991,0.9013,0.9045,0.9062,0.9077,0.9104,0.9122,0.9137,0.9156,0.9187,0.9205,0.9235,0.9261,0.931,0.9329,0.9359,0.9361,0.938,0.9365,0.9362,0.9362,0.9361,0.9364,0.9383,0.9383,0.9383,0.9384,0,0.9029,0.9036,0.9062,0.9091,0.9113,0.9137,0.916,0.9174,0.9193,0.9214,0.9245,0.9265,0.9305,0.9336,0.9367,0.9383,0.9387,0.9388,0.9395,0.9392,0.9386,0.9391,0.9334,0.9387,0.9387,0.9386,0.9386,0.9386,0.9053,0.9074,0.91,0.9129,0.9148,0.9171,0.9192,0.9209,0.9236,0.9269,0.9276,0.931,0.9336,0.9379,0.9396,0.9423,0.9419,0.9428,0.943,0.9433,0.9434,0.9381,0.9429,0.9429,0.9428,0.9428,0.9428,0,0.9092,0.9109,0.9136,0.9169,0.9192,0.9194,0.9221,0.9241,0.927,0.9294,0.932,0.9357,0.9387,0.941,0.9441,0.9459,0.9462,0.9467,0.9466,0.947,0.9435,0.9427,0.9464,0.9464,0.9464,0.9464,0.9464,0.9464,0.9114,0.9149,0.916,0.9205,0.9223,0.9256,0.9271,0.9292,0.9312,0.9353,0.9379,0.9393,0.9417,0.9451,0.948,0.9486,0.9497,0.9502,0.9509,0.9476,0.9472,0.9468,0.9461,0.9504,0.9505,0.9541,0.9541,0.9542]},{"header":{"parameterUnit":"m.s-1","parameterCategory":1,"la1":30.2991,"la2":30.254,"lo1":-89.0895,"lo2":-89.0444,"dy":0.0017,"dx":0.0017,"nx":28,"ny":28,"refTime":"2025-12-24T03:00:00:Z","depth":0,"parameterNumber":3,"parameterNumberName":"V-component_of_WINDS"},"data":[0,0,0,0,0,0,0,0,0,0,0,0,0,0,0,0,0,0,0,0,0,0,0,0,0,0,0,0,0,0,0,0,0,0,0,0,0,0,0,0,0,0,0,0,0,0,0,0,0,0,0,0,0,0,0,0,0,0,-1.1399,-1.1399,0,-1.1448,-1.1449,-1.1449,-1.1444,-1.1443,-1.1442,-1.1442,-1.1493,-1.1495,-1.1497,0,0,0,0,0,0,0,0,0,0,0,0,0,-1.1302,-1.1304,-1.1399,-1.1399,-1.14,-1.1448,-1.1449,-1.1449,-1.1444,-1.1443,-1.1442,-1.1441,-1.1493,-1.1495,-1.1498,0,0,0,0,0,0,0,0,0,0,0,0,0,-1.1347,-1.1304,-1.1399,-1.1403,-1.1404,-1.1448,-1.1449,-1.145,-1.1444,-1.1443,-1.1442,-1.1441,-1.1492,-1.1495,-1.1498,-1.1541,0,0,-1.1508,-1.1509,0,0,0,0,0,0,0,0,-1.1344,-1.135,-1.1402,-1.1403,-1.1404,-1.1439,-1.1434,-1.148,-1.1445,-1.1429,-1.1442,-1.144,-1.1476,-1.1481,-1.1492,-1.1544,-1.1546,-1.1508,-1.151,-1.1511,-1.1512,0,0,0,0,0,0,0,-1.1341,-1.1348,-1.1418,-1.1403,-1.1404,-1.1403,-1.1408,-1.1442,-1.1459,-1.143,-1.143,-1.1436,-1.1477,-1.1489,-1.1494,-1.1547,-1.1508,-1.1511,-1.1513,-1.1514,-1.1638,-1.1639,0,0,0,0,0,0,-1.1337,-1.1346,-1.1417,-1.142,-1.1371,-1.1406,-1.1412,-1.1429,-1.1458,-1.1462,-1.1437,-1.1435,-1.1485,-1.149,-1.1495,-1.1549,-1.1511,-1.1514,-1.1516,-1.1636,-1.1638,-1.164,0,0,0,0,0,0,-1.1335,-1.1343,-1.1415,-1.1383,-1.1392,-1.1409,-1.1428,-1.143,-1.1443,-1.1463,-1.1466,-1.1447,-1.1484,-1.1491,-1.153,-1.1551,-1.1516,-1.1518,-1.1635,-1.1637,-1.1639,-1.1656,0,0,0,0,0,0,-1.1332,-1.1342,-1.1358,-1.1383,-1.1394,-1.1448,-1.1429,-1.1432,-1.1449,-1.1447,-1.1473,-1.1477,-1.1483,-1.1526,-1.1533,-1.1555,-1.1521,-1.1633,-1.1636,-1.1638,-1.1654,-1.1659,-1.1663,0,0,0,0,0,-1.1328,-1.1361,-1.1359,-1.1368,-1.1414,-1.1449,-1.1455,-1.1462,-1.145,-1.1467,-1.148,-1.1476,-1.1547,-1.153,-1.1538,-1.1561,-1.1632,-1.1635,-1.1638,-1.1652,-1.1658,-1.1663,0,0,0,0,0,0,-1.1338,-1.1364,-1.1363,-1.1404,-1.1425,-1.1448,-1.1469,-1.1468,-1.1492,-1.149,-1.1498,-1.1504,-1.1544,-1.1556,-1.1536,-1.1605,-1.1588,-1.1593,-1.1596,-1.1601,-1.1606,-1.1602,-1.1524,0,0,0,0,0,-1.1345,-1.1371,-1.1393,-1.1428,-1.1438,-1.1452,-1.1468,-1.1471,-1.1493,-1.1502,-1.1518,-1.1539,-1.1567,-1.1585,-1.1611,-1.1656,-1.1662,-1.1676,-1.168,-1.1684,-1.1688,-1.1715,-1.1721,-1.165,-1.165,-1.165,0,0,-1.136,-1.1378,-1.1393,-1.143,-1.1446,-1.1474,-1.1459,-1.1489,-1.151,-1.1506,-1.1545,-1.1557,-1.1582,-1.1625,-1.1644,-1.1636,-1.171,-1.1688,-1.169,-1.1693,-1.1719,-1.1725,-1.1731,-1.1652,-1.1652,-1.1651,0,0,-1.1401,-1.1417,-1.1448,-1.1465,-1.149,-1.1499,-1.1507,-1.1531,-1.1539,-1.1578,-1.1576,-1.1602,-1.1648,-1.1667,-1.1682,-1.1732,-1.173,-1.1741,-1.1764,-1.179,-1.1795,-1.18,-1.1819,-1.1826,-1.1745,-1.1745,-1.1745,0,-1.1416,-1.1458,-1.1464,-1.1495,-1.1511,-1.151,-1.1542,-1.1558,-1.1591,-1.1603,-1.1593,-1.1653,-1.1669,-1.1717,-1.173,-1.1742,-1.1752,-1.1738,-1.1794,-1.1799,-1.1804,-1.1822,-1.1829,-1.1746,-1.1746,-1.1746,-1.1746,0,-1.1476,-1.1505,-1.1527,-1.1559,-1.1578,-1.1609,-1.1622,-1.164,-1.1643,-1.1654,-1.1694,-1.1714,-1.1745,-1.1756,-1.1759,-1.1805,-1.18,-1.1792,-1.1775,-1.1812,-1.1829,-1.1836,-1.1748,-1.1747,-1.1747,-1.1747,0,0,-1.1524,-1.156,-1.1568,-1.1583,-1.1611,-1.1634,-1.1666,-1.1696,-1.1713,-1.1736,-1.1764,-1.1804,-1.1798,-1.1815,-1.182,-1.1842,-1.1883,-1.1832,-1.1833,-1.1842,-1.1937,-1.1943,-1.1951,-1.1881,-1.1882,-1.1883,-1.1935,0,-1.1569,-1.1625,-1.1632,-1.1682,-1.171,-1.1709,-1.1737,-1.1758,-1.177,-1.1795,-1.1808,-1.1837,-1.1825,-1.1836,-1.1858,-1.1873,-1.1902,-1.1869,-1.1908,-1.1909,-1.1903,-1.196,-1.1966,-1.2014,-1.1942,-1.1943,-1.1944,0,-1.1628,-1.1653,-1.1706,-1.1732,-1.1744,-1.1769,-1.1798,-1.1822,-1.1847,-1.1853,-1.1874,-1.1876,-1.191,-1.1892,-1.194,-1.1918,-1.1934,-1.1944,-1.1946,-1.1951,-1.1929,-1.1967,-1.2029,-1.2037,-1.1954,-1.1954,-1.1953,0,-1.1659,-1.1706,-1.1744,-1.1757,-1.1788,-1.1806,-1.182,-1.1843,-1.1861,-1.1887,-1.1899,-1.1929,-1.1945,-1.1969,-1.198,-1.1965,-1.2028,-1.2009,-1.2035,-1.2035,-1.2049,-1.2048,-1.2116,-1.2058,-1.2058,-1.2058,-1.2058,0,-1.1709,-1.1742,-1.1759,-1.1782,-1.182,-1.1828,-1.1865,-1.1878,-1.1899,-1.1926,-1.1928,-1.1953,-1.1965,-1.1993,-1.2002,-1.2041,-1.2048,-1.2056,-1.2058,-1.2056,-1.2055,-1.2068,-1.2065,-1.206,-1.2059,-1.2059,-1.2059,0,-1.175,-1.1763,-1.1805,-1.1831,-1.1838,-1.1865,-1.1888,-1.1911,-1.1922,-1.1957,-1.1965,-1.1984,-1.2016,-1.2029,-1.2069,-1.2075,-1.2122,-1.212,-1.2113,-1.2114,-1.214,-1.2138,-1.2218,-1.223,-1.2164,-1.2164,-1.2165,0,-1.1781,-1.1806,-1.1836,-1.1854,-1.1868,-1.1897,-1.1916,-1.1927,-1.1947,-1.1977,-1.1998,-1.203,-1.2057,-1.211,-1.2127,-1.2158,-1.2159,-1.2185,-1.2163,-1.2162,-1.2161,-1.2159,-1.2163,-1.2189,-1.219,-1.219,-1.2191,0,-1.1836,-1.1841,-1.1868,-1.1898,-1.1921,-1.1945,-1.1969,-1.1983,-1.1998,-1.202,-1.2054,-1.2075,-1.2116,-1.2149,-1.2182,-1.2197,-1.2197,-1.2197,-1.2205,-1.2204,-1.22,-1.2204,-1.2125,-1.2196,-1.2195,-1.2195,-1.2194,-1.2194,-1.1874,-1.1897,-1.1921,-1.1952,-1.1971,-1.1993,-1.2017,-1.2032,-1.206,-1.2095,-1.2099,-1.2136,-1.2161,-1.2205,-1.2222,-1.2251,-1.2244,-1.2255,-1.2258,-1.2261,-1.2264,-1.2194,-1.2257,-1.2257,-1.2257,-1.2256,-1.2256,0,-1.1929,-1.1945,-1.1973,-1.2007,-1.2031,-1.2029,-1.2055,-1.2076,-1.2108,-1.2132,-1.2159,-1.2198,-1.2231,-1.2251,-1.2284,-1.2304,-1.2305,-1.2313,-1.2312,-1.2316,-1.2267,-1.2257,-1.2311,-1.2311,-1.2311,-1.2311,-1.2311,-1.2311,-1.1961,-1.2,-1.2009,-1.2059,-1.2075,-1.211,-1.2126,-1.2147,-1.2166,-1.221,-1.2238,-1.2251,-1.2274,-1.2309,-1.2339,-1.2344,-1.2357,-1.2365,-1.237,-1.2324,-1.2319,-1.2313,-1.2305,-1.2367,-1.2368,-1.2417,-1.2417,-1.2417]}]]